Location: Poughquag
(41.6090°N, 73.6820°W)
Time: 02:13:31
(UTC-04:00)

Vanguard 2 Rocket - Pass Details

Date: 01 June 2020
Orbit: 556 x 3324 km, 32.9° (Epoch: 06 July)

Event Time Altitude Azimuth Distance (km) Brightness Sun altitude
Rises 16:51:52 0° 253° (WSW) 3,928 11.1 36.8°
Reaches altitude 10° 16:54:10 10° 248° (WSW) 3,232 10.9 36.4°
Maximum altitude 17:02:20 55° 173° (S) 2,122 9.2 34.9°
Drops below altitude 10° 17:16:40 10° 102° (ESE) 5,475 10.4 32.2°
Sets 17:21:52 0° 99° (E) 6,830 10.8 31.2°
